This is the latest recevied weather packets stored in our database for station/object DB0OHA-10. If no packets are shown the sender has not sent any weather packets the latest 10 day(s).
| Time | Temp. | Humidity | Pressure | Rain* | Wind** | Luminosity | Snow |
|---|---|---|---|---|---|---|---|
| 1777161626 | 6.11° C | 43% | 1019.8 hPa | 0 mm | - | 0 W/m² | - |
| 1777160734 | 6.11° C | 37% | 1019.5 hPa | 0 mm | - | 0 W/m² | - |
| 1777160726 | 6.11° C | 37% | 1019.5 hPa | 0 mm | - | 0 W/m² | - |
| 1777159826 | 6.11° C | 38% | 1019.3 hPa | 0 mm | - | 0 W/m² | - |
| 1777158926 | 6.67° C | 42% | 1019.2 hPa | 0 mm | - | 0 W/m² | - |
| 1777158031 | 6.67° C | 43% | 1018.9 hPa | 0 mm | - | 0 W/m² | - |
| 1777158026 | 6.67° C | 43% | 1018.9 hPa | 0 mm | - | 0 W/m² | - |
| 1777157126 | 7.22° C | 48% | 1018.8 hPa | 0 mm | - | 0 W/m² | - |
| 1777156232 | 7.22° C | 53% | 1018.5 hPa | 0 mm | - | 0 W/m² | - |
| 1777156226 | 7.22° C | 53% | 1018.5 hPa | 0 mm | - | 0 W/m² | - |
| 1777155326 | 7.78° C | 55% | 1018.2 hPa | 0 mm | - | 0 W/m² | - |
| 1777154426 | 7.78° C | 58% | 1018 hPa | 0 mm | - | 0 W/m² | - |
| 1777153526 | 8.33° C | 61% | 1017.8 hPa | 0 mm | - | 0 W/m² | - |
| 1777152626 | 8.89° C | 62% | 1017.7 hPa | 0 mm | - | 0 W/m² | - |
| 1777151726 | 8.89° C | 64% | 1017.5 hPa | 0 mm | - | 0 W/m² | - |
| 1777150826 | 9.44° C | 65% | 1017.4 hPa | 0 mm | - | 0 W/m² | - |
| 1777149926 | 10° C | 64% | 1017.1 hPa | 0 mm | - | 0 W/m² | - |
| 1777149026 | 10.56° C | 62% | 1016.9 hPa | 0 mm | - | 0 W/m² | - |
| 1777148126 | 10.56° C | 60% | 1016.7 hPa | 0 mm | - | 0 W/m² | - |
| 1777147226 | 10.56° C | 59% | 1016.3 hPa | 0 mm | - | 0 W/m² | - |
| 1777146326 | 11.11° C | 59% | 1016.2 hPa | 0 mm | - | 0 W/m² | - |
| 1777145426 | 11.11° C | 58% | 1016.3 hPa | 0 mm | - | 0 W/m² | - |
| 1777144526 | 11.11° C | 58% | 1016.1 hPa | 0 mm | - | 0 W/m² | - |
| 1777143626 | 11.67° C | 58% | 1016.2 hPa | 0 mm | - | 0 W/m² | - |
| 1777142726 | 12.22° C | 56% | 1016.2 hPa | 0 mm | - | 0 W/m² | - |
* Rain latest hour (hover to see other rain measurements)
** Current wind speed in m/s (hover to see current wind gust speed)